{"data":{"norad_id":57368,"epoch":"2026-09-20T05:56:45.859200Z","epoch_age_seconds":145964,"freshness":"FRESH","line1":"1 57368U 23099AS  26263.24775300 -.00000359  00000+0 -35246-5 0  9992","line2":"2 57368  43.0012 222.9823 0001199 268.4840  91.5874 15.27574071175951","mean_motion":15.27574071,"eccentricity":0.0001199,"inclination_deg":43.0012,"raan_deg":222.9823,"arg_perigee_deg":268.484,"mean_anomaly_deg":91.5874,"bstar":-3.5246e-6,"rev_number":17595,"period_min":94.267114592835,"perigee_km":482.24419131445,"apogee_km":483.8895079976,"semimajor_km":6861.203849656,"source":"CELESTRAK","updated_at":"2026-09-21T09:00:33.604296Z"}}